Voltar ao catálogo

ONEWEB-0401

AtivoComunicaçõesPO
NORAD 50481·PAYLOAD·🇬🇧 United Kingdom

Lançado Dec 27, 2021 de Baikonur Cosmodrome

Loading…

Próximas Passagens (próximas 24 horas)

TLE

AtualizadoSource: CelesTrak SupGP

Época: Sep 14, 2026, 09:05 UTC

1 50481C 21132N   26257.37863843 -.00003260  00000+0 -82782-2 0  2579
2 50481  87.9173 317.7268 0002144  95.5109 348.6910 13.18687945    13

Acompanhe ONEWEB-0401 em tempo real com AllMySat

Download on the App Store